| time (UTC) | temp F | wind direction | speed MPH | gust MPH | rain 1hr in | rain 24hr in | rain mn in | humidity % | barometer mb |
| 20260505054600 | 49 | 0 | 0.0 | 2.0 | 0.00 | 0.00 | 0.00 | 86 | 1011.8 |
| 20260505054100 | 49 | 0 | 0.0 | 2.0 | 0.00 | 0.00 | 0.00 | 85 | 1011.8 |
| 20260505053559 | 49 | 0 | 0.0 | 2.0 | 0.00 | 0.00 | 0.00 | 85 | 1011.8 |
| 20260505053101 | 49 | 0 | 0.0 | 2.0 | 0.00 | 0.00 | 0.00 | 85 | 1011.8 |
| 20260505052557 | 49 | 0 | 0.0 | 1.0 | 0.00 | 0.00 | 0.00 | 85 | 1011.8 |
| 20260505052058 | 49 | 0 | 0.0 | 1.0 | 0.00 | 0.00 | 0.00 | 85 | 1011.8 |
| 20260505051607 | 49 | 0 | 0.0 | 2.0 | 0.00 | 0.00 | 0.00 | 85 | 1011.8 |
| 20260505051058 | 49 | 0 | 0.0 | 2.0 | 0.00 | 0.00 | 0.00 | 85 | 1011.9 |
| 20260505050557 | 49 | 0 | 0.0 | 2.0 | 0.00 | 0.00 | 0.00 | 84 | 1011.9 |
| 20260505050105 | 49 | 207 | 0.0 | 3.0 | 0.00 | 0.00 | 0.00 | 84 | 1011.9 |
| 20260505041603 | 50 | 0 | 0.0 | 3.0 | 0.00 | 0.00 | 0.00 | 82 | 1012.2 |
| 20260505041058 | 50 | 0 | 0.0 | 3.0 | 0.00 | 0.00 | 0.00 | 82 | 1012.2 |
| 20260505040558 | 50 | 190 | 0.0 | 3.0 | 0.00 | 0.00 | 0.00 | 82 | 1012.2 |
| 20260505035559 | 50 | 201 | 0.0 | 2.0 | 0.00 | 0.00 | 0.00 | 81 | 1012.2 |
| 20260505035101 | 50 | 0 | 0.0 | 5.0 | 0.00 | 0.00 | 0.00 | 81 | 1012.1 |
| 20260505034603 | 50 | 0 | 0.0 | 5.0 | 0.00 | 0.00 | 0.00 | 81 | 1012.1 |
| 20260505034100 | 50 | 227 | 0.0 | 3.0 | 0.00 | 0.00 | 0.00 | 80 | 1012.0 |
| 20260505033600 | 50 | 0 | 0.0 | 3.0 | 0.00 | 0.00 | 0.00 | 80 | 1012.1 |
| 20260505033100 | 51 | 0 | 1.0 | 3.0 | 0.00 | 0.00 | 0.00 | 80 | 1012.2 |
| 20260505032558 | 51 | 184 | 0.0 | 2.0 | 0.00 | 0.00 | 0.00 | 79 | 1012.1 |
| 20260505032059 | 51 | 194 | 0.0 | 4.0 | 0.00 | 0.00 | 0.00 | 79 | 1012.1 |
| 20260505031601 | 51 | 0 | 0.0 | 4.0 | 0.00 | 0.00 | 0.00 | 78 | 1012.1 |
| 20260505031059 | 51 | 0 | 0.0 | 2.0 | 0.00 | 0.00 | 0.00 | 78 | 1012.2 |
| 20260505030601 | 51 | 0 | 0.0 | 2.0 | 0.00 | 0.00 | 0.00 | 78 | 1012.3 |
| 20260505030100 | 51 | 0 | 0.0 | 2.0 | 0.00 | 0.00 | 0.00 | 78 | 1012.4 |
| 20260505025559 | 51 | 186 | 0.0 | 2.0 | 0.00 | 0.00 | 0.00 | 78 | 1012.4 |
| 20260505025058 | 51 | 0 | 0.0 | 2.0 | 0.00 | 0.00 | 0.00 | 78 | 1012.4 |
| 20260505024607 | 51 | 0 | 0.0 | 2.0 | 0.00 | 0.00 | 0.00 | 77 | 1012.3 |
| 20260505024058 | 51 | 184 | 0.0 | 3.0 | 0.00 | 0.00 | 0.00 | 77 | 1012.3 |
| 20260505023600 | 51 | 0 | 0.0 | 4.0 | 0.00 | 0.00 | 0.00 | 77 | 1012.3 |
| 20260505023102 | 52 | 0 | 1.0 | 4.0 | 0.00 | 0.00 | 0.00 | 76 | 1012.3 |
| 20260505022558 | 52 | 0 | 0.0 | 4.0 | 0.00 | 0.00 | 0.00 | 75 | 1012.3 |
| 20260505022058 | 52 | 196 | 0.0 | 4.0 | 0.00 | 0.00 | 0.00 | 75 | 1012.4 |
| 20260505021559 | 52 | 188 | 0.0 | 5.0 | 0.00 | 0.00 | 0.00 | 74 | 1012.4 |
| 20260505021059 | 52 | 207 | 0.0 | 5.0 | 0.00 | 0.00 | 0.00 | 74 | 1012.4 |
| 20260505020557 | 53 | 0 | 0.0 | 4.0 | 0.00 | 0.00 | 0.00 | 73 | 1012.4 |
| 20260505020100 | 53 | 0 | 0.0 | 4.0 | 0.00 | 0.00 | 0.00 | 73 | 1012.3 |
| 20260505015559 | 53 | 0 | 0.0 | 3.0 | 0.00 | 0.00 | 0.00 | 72 | 1012.3 |
| 20260505015101 | 53 | 187 | 0.0 | 6.0 | 0.00 | 0.00 | 0.00 | 72 | 1012.3 |
| 20260505014559 | 53 | 0 | 1.0 | 6.0 | 0.00 | 0.00 | 0.00 | 72 | 1012.3 |
| 20260505014102 | 54 | 157 | 1.0 | 4.0 | 0.00 | 0.00 | 0.00 | 71 | 1012.3 |
| 20260505013602 | 54 | 182 | 0.0 | 4.0 | 0.00 | 0.00 | 0.00 | 71 | 1012.2 |
| 20260505013126 | 54 | 0 | 1.0 | 5.0 | 0.00 | 0.00 | 0.00 | 70 | 1012.1 |
| 20260505012558 | 54 | 220 | 1.0 | 5.0 | 0.00 | 0.00 | 0.00 | 70 | 1012.0 |
| 20260505012100 | 54 | 0 | 0.0 | 6.0 | 0.00 | 0.00 | 0.00 | 69 | 1012.1 |
| 20260505011622 | 54 | 159 | 0.0 | 6.0 | 0.00 | 0.00 | 0.00 | 69 | 1012.0 |
| 20260505011059 | 55 | 202 | 2.0 | 6.0 | 0.00 | 0.00 | 0.00 | 68 | 1011.8 |
| 20260505010557 | 55 | 219 | 1.0 | 6.0 | 0.00 | 0.00 | 0.00 | 68 | 1011.6 |
| 20260505010113 | 55 | 189 | 1.0 | 6.0 | 0.00 | 0.00 | 0.00 | 68 | 1011.7 |
| 20260505005558 | 55 | 212 | 1.0 | 5.0 | 0.00 | 0.00 | 0.00 | 68 | 1011.5 |
| 20260505005058 | 55 | 216 | 1.0 | 5.0 | 0.00 | 0.00 | 0.00 | 67 | 1011.3 |
| 20260505004559 | 55 | 193 | 1.0 | 5.0 | 0.00 | 0.00 | 0.00 | 67 | 1011.3 |
| 20260505004057 | 55 | 169 | 2.0 | 5.0 | 0.00 | 0.00 | 0.00 | 67 | 1011.2 |
| 20260505003601 | 55 | 200 | 1.0 | 6.0 | 0.00 | 0.00 | 0.00 | 66 | 1011.2 |
| 20260505003104 | 55 | 0 | 1.0 | 6.0 | 0.00 | 0.00 | 0.00 | 66 | 1011.1 |
| 20260505002557 | 55 | 205 | 1.0 | 5.0 | 0.00 | 0.00 | 0.00 | 65 | 1011.0 |
| 20260505002100 | 55 | 0 | 0.0 | 5.0 | 0.00 | 0.00 | 0.00 | 65 | 1010.9 |
| 20260505001600 | 56 | 176 | 1.0 | 5.0 | 0.00 | 0.00 | 0.00 | 64 | 1010.9 |
| 20260505001058 | 56 | 177 | 0.0 | 9.0 | 0.00 | 0.00 | 0.00 | 62 | 1010.8 |
| 20260505000559 | 56 | 188 | 0.0 | 9.0 | 0.00 | 0.00 | 0.00 | 61 | 1010.7 |
| 20260505000107 | 57 | 181 | 0.0 | 8.0 | 0.00 | 0.00 | 0.00 | 61 | 1010.6 |
| 20260504235600 | 57 | 0 | 2.0 | 8.0 | 0.00 | 0.00 | 0.00 | 59 | 1010.4 |
| 20260504235102 | 57 | 195 | 1.0 | 7.0 | 0.00 | 0.00 | 0.00 | 58 | 1010.4 |
| 20260504234600 | 57 | 0 | 2.0 | 7.0 | 0.00 | 0.00 | 0.00 | 57 | 1010.2 |
| 20260504234100 | 58 | 151 | 1.0 | 10.0 | 0.00 | 0.00 | 0.00 | 57 | 1010.1 |
| 20260504233557 | 58 | 171 | 1.0 | 10.0 | 0.00 | 0.00 | 0.00 | 57 | 1010.1 |
| 20260504233106 | 58 | 207 | 2.0 | 12.0 | 0.00 | 0.00 | 0.00 | 56 | 1010.2 |
| 20260504232559 | 58 | 198 | 2.0 | 12.0 | 0.00 | 0.00 | 0.00 | 55 | 1010.0 |
| 20260504232100 | 58 | 182 | 0.0 | 7.0 | 0.00 | 0.00 | 0.00 | 55 | 1009.9 |
| 20260504231557 | 59 | 182 | 1.0 | 7.0 | 0.00 | 0.00 | 0.00 | 55 | 1009.8 |
| 20260504231101 | 59 | 196 | 1.0 | 6.0 | 0.00 | 0.00 | 0.00 | 54 | 1009.8 |
| 20260504230603 | 59 | 187 | 2.0 | 9.0 | 0.00 | 0.00 | 0.00 | 53 | 1009.7 |
| 20260504230107 | 60 | 162 | 2.0 | 9.0 | 0.00 | 0.00 | 0.00 | 52 | 1009.6 |
| 20260504225559 | 60 | 148 | 2.0 | 7.0 | 0.00 | 0.00 | 0.00 | 52 | 1009.7 |
| 20260504225059 | 60 | 190 | 2.0 | 9.0 | 0.00 | 0.00 | 0.00 | 50 | 1009.6 |
| 20260504224603 | 61 | 163 | 3.0 | 9.0 | 0.00 | 0.00 | 0.00 | 49 | 1009.4 |
| 20260504224058 | 61 | 215 | 3.0 | 9.0 | 0.00 | 0.00 | 0.00 | 49 | 1009.3 |
| 20260504223600 | 62 | 248 | 3.0 | 9.0 | 0.00 | 0.00 | 0.00 | 48 | 1009.2 |
| 20260504223105 | 62 | 165 | 2.0 | 12.0 | 0.00 | 0.00 | 0.00 | 47 | 1009.3 |
| 20260504222603 | 62 | 211 | 2.0 | 12.0 | 0.00 | 0.00 | 0.00 | 48 | 1009.1 |
| 20260504222100 | 63 | 205 | 2.0 | 9.0 | 0.00 | 0.00 | 0.00 | 47 | 1009.1 |
| 20260504221607 | 63 | 206 | 2.0 | 10.0 | 0.00 | 0.00 | 0.00 | 47 | 1009.1 |
| 20260504221100 | 63 | 184 | 4.0 | 10.0 | 0.00 | 0.00 | 0.00 | 48 | 1009.1 |
| 20260504220559 | 63 | 176 | 2.0 | 9.0 | 0.00 | 0.00 | 0.00 | 50 | 1009.1 |
| 20260504215559 | 63 | 159 | 4.0 | 12.0 | 0.00 | 0.00 | 0.00 | 48 | 1009.2 |
| 20260504215057 | 63 | 0 | 1.0 | 15.0 | 0.00 | 0.00 | 0.00 | 49 | 1009.0 |
| 20260504214614 | 64 | 200 | 1.0 | 16.0 | 0.00 | 0.00 | 0.00 | 47 | 1009.0 |
| 20260504214058 | 64 | 170 | 2.0 | 16.0 | 0.00 | 0.00 | 0.00 | 47 | 1009.0 |
| 20260504213603 | 64 | 129 | 2.0 | 6.0 | 0.00 | 0.00 | 0.00 | 47 | 1009.0 |
| 20260504213130 | 64 | 215 | 1.0 | 9.0 | 0.00 | 0.00 | 0.00 | 48 | 1008.9 |
| 20260504212602 | 64 | 180 | 2.0 | 9.0 | 0.00 | 0.00 | 0.00 | 47 | 1009.0 |
| 20260504212102 | 65 | 225 | 1.0 | 11.0 | 0.00 | 0.00 | 0.00 | 46 | 1008.9 |
| 20260504211612 | 65 | 158 | 3.0 | 20.0 | 0.00 | 0.00 | 0.00 | 45 | 1008.9 |
| 20260504211101 | 65 | 117 | 2.0 | 20.0 | 0.00 | 0.00 | 0.00 | 44 | 1008.9 |
| 20260504210604 | 65 | 161 | 4.0 | 19.0 | 0.00 | 0.00 | 0.00 | 44 | 1008.7 |
| 20260504205604 | 66 | 200 | 2.0 | 20.0 | 0.00 | 0.00 | 0.00 | 41 | 1008.8 |
| 20260504205102 | 66 | 209 | 3.0 | 24.0 | 0.00 | 0.00 | 0.00 | 43 | 1008.8 |
| 20260504204607 | 66 | 223 | 3.0 | 24.0 | 0.00 | 0.00 | 0.00 | 40 | 1008.7 |
| 20260504204102 | 66 | 207 | 4.0 | 12.0 | 0.00 | 0.00 | 0.00 | 40 | 1008.7 |
| 20260504203600 | 67 | 93 | 4.0 | 11.0 | 0.00 | 0.00 | 0.00 | 39 | 1008.7 |
| 20260504203106 | 67 | 164 | 3.0 | 13.0 | 0.00 | 0.00 | 0.00 | 40 | 1008.6 |
| 20260504202602 | 67 | 243 | 4.0 | 13.0 | 0.00 | 0.00 | 0.00 | 38 | 1008.7 |
| 20260504202103 | 68 | 194 | 3.0 | 12.0 | 0.00 | 0.00 | 0.00 | 38 | 1008.6 |
| 20260504201630 | 69 | 261 | 2.0 | 12.0 | 0.00 | 0.00 | 0.00 | 39 | 1008.6 |
| 20260504201101 | 68 | 158 | 2.0 | 13.0 | 0.00 | 0.00 | 0.00 | 38 | 1008.5 |
| 20260504200602 | 67 | 74 | 5.0 | 14.0 | 0.00 | 0.00 | 0.00 | 37 | 1008.6 |
| 20260504200114 | 68 | 212 | 4.0 | 18.0 | 0.00 | 0.00 | 0.00 | 37 | 1008.7 |
| 20260504195603 | 69 | 145 | 3.0 | 18.0 | 0.00 | 0.00 | 0.00 | 38 | 1008.7 |
| 20260504195100 | 69 | 161 | 2.0 | 10.0 | 0.00 | 0.00 | 0.00 | 35 | 1008.7 |
| 20260504194614 | 69 | 115 | 2.0 | 10.0 | 0.00 | 0.00 | 0.00 | 35 | 1008.7 |
| 20260504194101 | 69 | 151 | 3.0 | 17.0 | 0.00 | 0.00 | 0.00 | 34 | 1008.6 |
| 20260504193603 | 70 | 157 | 3.0 | 17.0 | 0.00 | 0.00 | 0.00 | 35 | 1008.7 |
| 20260504193119 | 70 | 211 | 4.0 | 11.0 | 0.00 | 0.00 | 0.00 | 32 | 1008.5 |
| 20260504192604 | 70 | 207 | 2.0 | 11.0 | 0.00 | 0.00 | 0.00 | 35 | 1008.6 |
| 20260504192104 | 70 | 128 | 3.0 | 10.0 | 0.00 | 0.00 | 0.00 | 31 | 1008.6 |
| 20260504191608 | 71 | 154 | 2.0 | 11.0 | 0.00 | 0.00 | 0.00 | 32 | 1008.7 |
| 20260504191102 | 70 | 154 | 3.0 | 12.0 | 0.00 | 0.00 | 0.00 | 32 | 1008.7 |
| 20260504190602 | 71 | 239 | 3.0 | 15.0 | 0.00 | 0.00 | 0.00 | 29 | 1008.8 |
| 20260504190117 | 70 | 202 | 5.0 | 15.0 | 0.00 | 0.00 | 0.00 | 28 | 1008.8 |
| 20260504185601 | 71 | 201 | 4.0 | 10.0 | 0.00 | 0.00 | 0.00 | 27 | 1008.8 |
| 20260504185100 | 71 | 198 | 5.0 | 9.0 | 0.00 | 0.00 | 0.00 | 30 | 1008.9 |
| 20260504184629 | 72 | 271 | 3.0 | 10.0 | 0.00 | 0.00 | 0.00 | 28 | 1008.7 |
| 20260504184102 | 71 | 277 | 4.0 | 11.0 | 0.00 | 0.00 | 0.00 | 27 | 1008.7 |
| 20260504183602 | 71 | 189 | 3.0 | 15.0 | 0.00 | 0.00 | 0.00 | 28 | 1008.6 |
| 20260504183100 | 71 | 208 | 3.0 | 15.0 | 0.00 | 0.00 | 0.00 | 28 | 1008.8 |
| 20260504182602 | 72 | 252 | 2.0 | 9.0 | 0.00 | 0.00 | 0.00 | 29 | 1009.0 |
| 20260504182102 | 71 | 292 | 3.0 | 10.0 | 0.00 | 0.00 | 0.00 | 28 | 1009.1 |
| 20260504181603 | 71 | 182 | 3.0 | 11.0 | 0.00 | 0.00 | 0.00 | 29 | 1009.2 |
| 20260504181057 | 71 | 234 | 2.0 | 11.0 | 0.00 | 0.00 | 0.00 | 28 | 1009.0 |
| 20260504180559 | 70 | 199 | 5.0 | 13.0 | 0.00 | 0.00 | 0.00 | 28 | 1009.2 |
| 20260504175600 | 70 | 225 | 2.0 | 16.0 | 0.00 | 0.00 | 0.00 | 29 | 1009.2 |
| 20260504175059 | 70 | 175 | 5.0 | 16.0 | 0.00 | 0.00 | 0.00 | 28 | 1009.1 |
| 20260504174558 | 71 | 284 | 5.0 | 14.0 | 0.00 | 0.00 | 0.00 | 28 | 1008.9 |
| 20260504174057 | 70 | 246 | 5.0 | 10.0 | 0.00 | 0.00 | 0.00 | 30 | 1008.9 |
| 20260504173559 | 70 | 193 | 2.0 | 13.0 | 0.00 | 0.00 | 0.00 | 29 | 1008.9 |
| 20260504173058 | 70 | 207 | 6.0 | 13.0 | 0.00 | 0.00 | 0.00 | 27 | 1009.0 |
| 20260504172557 | 70 | 210 | 3.0 | 10.0 | 0.00 | 0.00 | 0.00 | 30 | 1009.0 |
| 20260504172057 | 70 | 200 | 3.0 | 15.0 | 0.00 | 0.00 | 0.00 | 29 | 1009.1 |
| 20260504171613 | 69 | 226 | 5.0 | 15.0 | 0.00 | 0.00 | 0.00 | 28 | 1009.2 |
| 20260504171057 | 70 | 164 | 4.0 | 14.0 | 0.00 | 0.00 | 0.00 | 31 | 1009.2 |
| 20260504170559 | 70 | 214 | 5.0 | 14.0 | 0.00 | 0.00 | 0.00 | 28 | 1009.2 |
| 20260504160105 | 68 | 197 | 4.0 | 12.0 | 0.00 | 0.00 | 0.00 | 31 | 1010.1 |
| 20260504151103 | 67 | 118 | 5.0 | 9.0 | 0.00 | 0.00 | 0.00 | 32 | 1010.4 |
| 20260504150605 | 67 | 259 | 2.0 | 11.0 | 0.00 | 0.00 | 0.00 | 36 | 1010.6 |
| 20260504141101 | 64 | 208 | 4.0 | 10.0 | 0.00 | 0.00 | 0.00 | 36 | 1011.0 |
| 20260504140601 | 64 | 217 | 2.0 | 9.0 | 0.00 | 0.00 | 0.00 | 36 | 1011.1 |
| 20260504140113 | 63 | 215 | 3.0 | 9.0 | 0.00 | 0.00 | 0.00 | 37 | 1011.1 |
| 20260504130604 | 59 | 283 | 2.0 | 9.0 | 0.00 | 0.00 | 0.00 | 43 | 1011.8 |
| 20260504120121 | 52 | 0 | 1.0 | 4.0 | 0.00 | 0.00 | 0.00 | 55 | 1012.1 |
| 20260504110600 | 46 | 189 | 1.0 | 3.0 | 0.00 | 0.00 | 0.00 | 65 | 1011.8 |
| 20260504110114 | 46 | 278 | 0.0 | 2.0 | 0.00 | 0.00 | 0.00 | 67 | 1011.8 |
| 20260504100556 | 41 | 0 | 0.0 | 1.0 | 0.00 | 0.00 | 0.00 | 71 | 1011.6 |
| 20260504100115 | 41 | 0 | 0.0 | 1.0 | 0.00 | 0.00 | 0.00 | 71 | 1011.6 |
| 20260504090106 | 42 | 0 | 0.0 | 0.0 | 0.00 | 0.00 | 0.00 | 70 | 1011.6 |
| 20260504081600 | 43 | 0 | 0.0 | 1.0 | 0.00 | 0.00 | 0.00 | 71 | 1011.5 |
| 20260504081059 | 42 | 0 | 0.0 | 2.0 | 0.00 | 0.00 | 0.00 | 70 | 1011.4 |
| 20260504080603 | 42 | 0 | 0.0 | 2.0 | 0.00 | 0.00 | 0.00 | 71 | 1011.4 |
| 20260504060106 | 40 | 0 | 0.0 | 1.0 | 0.00 | 0.00 | 0.00 | 72 | 1011.1 |